Wetbulb
56.91 57.48 56.65 55.61 55.19 55.17 52.88 54.31 53.33 52.90 51.20 50.65 49.41 49.39 49.21 48.62 48.19 50.18 53.36 58.65 60.28 59.90 58.80 58.04 56.94 56.25 55.40 54.36 53.42 52.59 52.45 52.18 52.12 52.12 51.89 51.90 51.68 51.37 51.28 51.08 50.80 50.60 50.57
58.02 57.09 56.75 56.17 55.79 56.19 55.73 54.15 53.46 52.25 51.07 49.83 48.76 48.66 48.93 49.01 49.97 49.84 52.47 54.19 58.15 60.19 59.57 58.34 57.88 56.85 55.71 54.56 52.66 51.14 50.98 50.76 50.72 50.98 51.48 51.57 51.53 51.33 51.45 51.29 50.98 50.95 50.94
59.26 57.62 58.31 57.31 56.87 56.82 55.92 54.11 53.54 52.81 50.91 50.62 49.01 48.97 48.53 48.93 48.79 50.53 51.29 52.78 55.44 58.51 58.14 59.70 57.35 56.51 55.34 53.55 52.57 50.96 50.36 49.90 49.63 50.24 50.52 50.96 51.05 51.02 50.75 50.42 50.18 50.19 50.29
59.93 59.05 58.09 57.71 57.98 57.41 55.71 54.51 53.29 52.56 51.45 50.04 48.03 47.51 47.83 47.89 47.85 47.88 50.56 51.27 51.54 52.62 56.14 57.43 56.98 54.99 53.62 52.49 51.41 50.43 49.59 49.00 48.99 49.43 50.09 50.74 50.93 50.62 50.11 49.93 49.71 49.47 49.74
60.95 59.15 58.47 58.03 57.43 56.60 55.41 55.22 53.81 53.02 52.33 50.62 48.65 47.60 47.07 46.77 46.90 49.02 48.78 49.64 50.85 50.73 50.43 55.35 55.19 54.65 53.33 51.85 50.89 48.99 48.66 48.67 48.63 49.04 49.80 50.05 50.11 49.82 49.38 49.16 49.18 49.07 49.11
60.92 59.48 59.06 58.41 58.04 56.05 55.20 53.66 52.71 52.65 53.42 51.56 51.95 50.00 47.54 47.56 46.38 46.01 45.88 47.92 47.22 48.90 49.48 49.30 49.15 48.30 52.80 51.46 49.96 49.51 49.40 49.15 48.60 48.34 48.84 49.00 48.97 48.76 48.62 48.46 48.44 48.65 49.05
60.70 60.05 59.49 59.17 58.52 56.20 54.40 53.10 52.58 52.16 51.81 52.11 49.76 48.77 48.76 47.89 46.77 46.36 45.83 45.04 45.78 45.72 45.55 46.99 45.38 43.70 46.43 52.17 50.74 50.60 50.82 49.86 48.70 48.50 47.36 47.18 47.22 47.65 47.57 47.65 47.81 47.82 48.14
61.74 61.13 60.52 60.04 59.38 57.14 53.90 53.18 52.64 50.87 52.00 52.40 48.67 48.59 46.32 46.80 47.12 47.17 45.93 45.99 44.98 45.78 45.51 45.80 44.38 43.49 43.35 43.67 44.45 50.87 50.84 50.09 49.10 46.83 46.01 45.26 45.42 45.75 46.13 46.16 46.43 46.59 46.75
61.63 61.47 61.03 60.58 59.30 57.82 55.73 54.18 53.53 51.98 50.80 52.25 50.73 49.43 45.48 44.03 43.61 45.50 46.32 47.21 46.79 45.13 44.24 44.93 45.29 44.09 43.07 42.32 46.31 48.97 50.04 49.09 47.60 46.59 44.69 44.05 44.01 44.66 44.98 45.23 45.38 45.30 45.32
61.16 60.35 60.00 59.78 59.38 58.83 57.48 55.81 54.64 53.47 52.16 50.98 51.33 50.71 46.81 45.14 42.52 40.42 45.08 46.88 45.76 47.18 44.27 43.73 43.98 43.80 43.42 43.16 45.52 46.13 47.29 46.48 46.13 45.44 44.61 43.54 43.36 43.76 44.11 44.15 43.98 44.10 44.36
60.18 59.30 59.17 57.39 57.39 56.93 55.70 56.11 54.94 54.17 53.25 51.96 50.55 46.73 45.80 46.44 45.81 42.27 41.32 43.52 45.63 45.90 43.80 43.35 43.11 43.03 43.76 42.33 41.70 44.70 46.16 44.72 44.65 44.72 44.66 43.45 42.81 43.36 42.90 43.22 43.18 43.39 43.54
60.31 59.09 58.85 58.33 57.79 57.78 56.71 54.23 53.85 53.73 52.06 49.18 48.17 46.73 45.85 44.59 44.19 42.37 41.47 41.58 41.40 42.28 43.82 43.74 43.12 42.48 41.94 41.07 43.94 45.70 45.17 43.49 43.68 43.97 43.54 43.25 42.64 42.38 42.43 42.68 42.66 42.43 42.63
58.37 57.97 58.13 56.97 56.51 54.69 53.08 53.44 53.79 52.38 50.14 47.93 46.71 45.63 45.57 44.79 44.81 44.54 42.93 41.12 39.99 41.21 41.62 42.09 43.35 42.75 42.83 40.49 41.56 44.81 44.70 42.59 42.88 42.86 43.06 42.69 42.06 41.93 41.73 41.63 41.20 41.07 41.13
58.54 57.93 58.25 57.63 55.95 52.88 51.90 51.90 50.45 49.70 48.77 46.96 44.83 44.66 44.26 44.72 45.16 44.60 43.35 41.47 36.62 36.80 37.78 38.30 42.29 41.90 40.14 39.84 40.77 45.10 42.03 41.86 41.83 42.45 42.72 42.01 41.60 41.22 40.84 40.57 40.00 39.44 39.55
58.63 57.41 57.79 56.07 53.87 52.27 50.61 49.99 49.19 47.43 45.75 44.11 44.42 44.59 44.17 44.49 44.97 44.91 44.65 44.07 39.07 35.48 32.90 35.52 36.36 39.07 38.30 38.51 40.09 41.18 37.19 41.75 41.52 41.62 41.84 42.07 41.39 41.12 40.92 40.12 39.22 38.76 38.40
58.12 56.75 54.95 52.04 50.45 50.04 49.89 47.97 45.77 44.50 43.45 44.00 44.03 43.68 43.52 44.12 44.11 44.66 44.84 43.19 40.58 37.91 34.53 35.57 36.13 36.66 37.66 39.88 39.48 38.30 36.97 41.39 41.59 41.03 40.67 40.75 41.16 41.12 40.87 39.62 38.77 38.15 37.92
55.75 54.70 52.14 50.29 49.36 48.77 47.39 45.79 44.41 43.68 43.28 43.29 43.46 43.01 43.03 43.67 43.25 43.81 42.89 41.32 40.88 39.58 37.06 36.10 35.64 36.56 35.10 35.63 37.49 38.23 37.88 38.12 38.28 40.89 39.97 40.02 39.93 40.63 40.35 39.63 38.30 37.38 37.32
53.81 51.48 49.78 48.83 48.08 46.67 45.29 44.26 43.24 42.85 42.38 41.99 42.35 42.33 42.00 43.45 43.94 44.39 43.00 41.58 40.76 40.20 38.75 36.37 35.10 34.19 34.90 35.97 36.07 35.42 37.70 39.14 37.04 39.30 40.98 40.62 40.22 39.49 39.05 38.60 37.90 37.47 36.91
49.24 48.74 48.07 46.80 45.56 44.73 44.04 43.46 42.96 42.69 42.60 42.39 42.35 42.10 43.07 44.58 42.49 41.70 41.24 41.08 41.15 41.27 37.53 36.44 36.95 34.88 35.04 36.86 37.02 36.54 36.41 35.50 36.58 39.95 39.65 39.48 39.74 39.84 39.09 38.37 37.92 37.82 37.65
47.12 46.48 45.98 45.53 44.94 44.30 43.80 43.32 42.65 41.87 41.85 42.32 43.20 43.61 43.08 40.86 39.57 39.94 40.73 37.73 38.34 35.91 35.82 35.39 34.68 33.42 33.33 35.87 34.71 33.74 31.95 32.12 32.72 37.21 38.28 36.34 36.67 38.39 38.94 38.91 38.55 38.38 37.97
45.37 45.24 44.84 44.37 44.09 43.59 43.00 42.10 42.02 41.97 42.28 42.35 42.43 43.11 41.63 41.59 41.77 40.81 40.97 38.19 36.83 36.69 34.51 34.35 33.66 34.10 31.94 29.63 29.84 32.49 30.96 32.56 31.94 33.01 31.98 31.02 29.98 29.64 29.98 35.35 36.31 37.89 38.17
44.46 44.18 43.27 42.43 42.09 42.21 39.73 40.24 41.70 42.06 41.85 41.49 38.68 36.85 36.68 38.43 37.49 36.73 35.01 34.63 33.63 30.87 29.35 29.03 31.32 31.98 32.94 31.11 30.35 30.92 32.60 31.72 30.95 32.75 31.38 28.26 29.32 27.40 28.65 28.22 33.67 35.75 36.13
43.13 40.94 39.82 40.04 40.14 41.34 39.57 39.88 38.54 39.35 38.31 34.83 33.61 33.50 34.38 35.21 33.34 32.73 32.69 32.58 31.91 33.50 30.70 29.80 29.48 30.35 30.91 32.29 33.54 32.19 30.15 33.06 31.73 32.12 30.70 28.96 26.69 25.43 27.28 31.72 35.25 35.93 35.14
40.19 39.54 39.41 40.04 40.45 41.39 37.73 37.38 35.65 33.68 32.45 31.82 31.65 31.11 29.97 29.42 30.27 31.39 29.33 28.26 28.61 29.32 30.23 31.57 30.40 31.20 32.01 34.54 34.04 33.67 33.38 33.25 33.93 32.93 29.00 24.14 24.36 24.20 25.97 27.59 33.67 35.55 34.88
41.79 41.10 41.75 37.51 32.98 31.95 34.04 34.03 32.21 29.41 29.64 28.50 29.74 28.96 28.70 27.70 31.14 31.56 27.81 25.56 25.16 26.30 30.66 32.30 32.79 32.87 33.04 33.63 33.43 32.31 32.52 31.86 29.44 27.04 26.64 24.69 23.83 23.92 24.95 24.75 26.84 33.23 34.39
41.23 38.65 36.12 33.46 32.49 30.77 33.05 33.10 29.80 26.48 24.69 24.26 25.66 27.16 28.77 28.44 29.88 29.60 26.17 25.38 24.81 25.90 27.27 27.64 28.56 29.85 31.26 31.13 32.52 32.38 32.66 31.13 29.52 26.29 27.57 25.63 23.73 22.83 19.79 23.22 25.22 25.31 25.07
MSLP
1021.62 1022.23 1022.54 1022.55 1023.15 1023.67 1024.05 1024.26 1024.14 1024.35 1024.47 1024.64 1024.57 1024.56 1024.67 1025.27 1025.50 1025.77 1025.86 1025.74 1026.02 1026.23 1026.48 1026.84 1026.96 1027.16 1027.44 1027.70 1027.85 1028.01 1028.06 1028.10 1028.13 1028.18 1028.22 1028.32 1028.39 1028.43 1028.38 1028.28 1028.15 1028.09 1027.97
1021.83 1022.02 1022.23 1022.31 1023.12 1023.63 1023.84 1024.04 1024.18 1024.53 1024.81 1024.57 1024.65 1024.86 1024.96 1025.08 1025.38 1025.58 1025.90 1025.82 1025.77 1025.92 1026.25 1026.67 1026.85 1027.04 1027.26 1027.55 1027.96 1028.11 1028.18 1028.21 1028.25 1028.26 1028.35 1028.34 1028.39 1028.50 1028.49 1028.41 1028.31 1028.17 1028.01
1021.58 1021.65 1021.70 1022.50 1023.00 1023.24 1023.50 1023.92 1024.16 1024.46 1024.71 1024.74 1024.84 1024.82 1025.03 1025.12 1025.40 1025.62 1025.88 1025.88 1025.81 1025.77 1026.00 1026.32 1026.60 1026.92 1027.16 1027.41 1027.80 1028.10 1028.18 1028.24 1028.28 1028.25 1028.35 1028.50 1028.45 1028.52 1028.54 1028.52 1028.49 1028.42 1028.22
1020.80 1021.22 1022.07 1022.49 1022.71 1023.02 1023.20 1023.78 1024.08 1024.50 1024.47 1024.67 1025.02 1025.03 1025.17 1025.24 1025.36 1025.52 1025.73 1025.87 1026.06 1026.15 1026.16 1026.62 1026.81 1027.16 1027.34 1027.57 1027.79 1028.02 1028.20 1028.24 1028.31 1028.24 1028.29 1028.41 1028.38 1028.46 1028.59 1028.58 1028.50 1028.43 1028.24
1020.70 1021.38 1021.91 1022.20 1022.46 1022.79 1023.17 1023.45 1023.88 1024.03 1024.40 1024.62 1024.86 1025.05 1025.07 1025.13 1025.10 1025.05 1025.41 1025.59 1025.77 1026.10 1026.51 1026.69 1026.98 1027.19 1027.33 1027.51 1027.67 1027.92 1028.17 1028.24 1028.23 1028.21 1028.29 1028.30 1028.38 1028.45 1028.53 1028.60 1028.49 1028.34 1028.14
1020.66 1021.21 1021.71 1022.03 1022.24 1022.73 1023.18 1023.42 1023.67 1023.85 1024.17 1024.39 1024.48 1024.70 1024.86 1024.97 1024.92 1025.00 1024.92 1025.15 1025.56 1025.79 1026.25 1026.43 1026.83 1027.05 1027.15 1027.35 1027.55 1027.74 1027.92 1028.02 1028.10 1028.12 1028.35 1028.43 1028.50 1028.56 1028.52 1028.49 1028.43 1028.24 1028.05
1020.43 1020.86 1021.22 1021.67 1021.94 1022.43 1022.78 1023.21 1023.43 1023.76 1024.16 1024.23 1024.36 1024.93 1025.03 1024.78 1024.84 1024.99 1024.91 1025.01 1025.21 1025.64 1025.85 1026.05 1026.39 1026.74 1026.90 1027.03 1027.22 1027.47 1027.61 1027.78 1027.91 1027.89 1028.26 1028.58 1028.67 1028.68 1028.61 1028.51 1028.39 1028.26 1028.01
1019.87 1020.21 1020.51 1020.89 1021.31 1022.14 1022.53 1022.76 1023.01 1023.55 1023.76 1024.11 1024.44 1024.77 1025.01 1025.27 1025.11 1025.03 1024.94 1024.87 1025.18 1025.26 1025.48 1025.56 1025.94 1026.36 1026.42 1026.68 1026.86 1026.95 1027.17 1027.42 1027.56 1028.02 1028.19 1028.48 1028.65 1028.74 1028.79 1028.70 1028.53 1028.33 1028.09
1019.12 1019.64 1020.21 1020.78 1021.17 1021.66 1022.01 1022.16 1022.36 1022.73 1023.33 1023.74 1024.13 1024.40 1025.07 1025.06 1025.05 1025.05 1024.86 1024.75 1024.84 1025.12 1025.10 1025.16 1025.30 1025.61 1026.01 1026.19 1026.31 1026.46 1026.81 1027.20 1027.56 1027.87 1028.11 1028.29 1028.44 1028.58 1028.64 1028.57 1028.42 1028.20 1027.94
1018.55 1019.10 1019.68 1020.10 1020.55 1020.87 1021.22 1021.43 1021.75 1022.20 1022.80 1023.31 1024.33 1024.90 1025.07 1025.45 1025.56 1025.73 1025.07 1024.72 1024.74 1024.91 1024.95 1025.01 1024.97 1025.01 1025.36 1025.64 1025.87 1026.09 1026.49 1026.98 1027.31 1027.64 1027.78 1028.01 1028.22 1028.34 1028.37 1028.32 1028.13 1027.87 1027.58
1018.23 1018.76 1019.27 1019.82 1019.92 1020.32 1020.88 1021.27 1021.73 1022.00 1022.62 1023.38 1023.93 1024.92 1025.44 1025.72 1026.03 1026.03 1025.69 1025.17 1024.93 1024.69 1024.64 1024.70 1024.80 1024.87 1024.94 1025.28 1025.61 1025.83 1026.03 1026.48 1026.84 1027.10 1027.29 1027.55 1027.76 1027.90 1028.02 1027.95 1027.76 1027.50 1027.22
1017.69 1018.12 1018.61 1019.13 1019.57 1019.94 1020.58 1021.13 1021.49 1021.93 1022.39 1022.92 1023.34 1024.41 1025.18 1025.74 1025.92 1025.92 1025.65 1025.52 1025.38 1024.77 1024.54 1024.33 1024.55 1024.48 1024.56 1024.75 1024.91 1025.13 1025.49 1025.78 1026.06 1026.43 1026.66 1026.94 1027.21 1027.48 1027.48 1027.39 1027.23 1027.07 1026.90
1017.35 1017.61 1018.04 1018.74 1019.33 1019.75 1020.26 1020.70 1021.21 1021.75 1022.44 1023.13 1023.51 1024.32 1024.90 1025.27 1025.63 1025.87 1025.71 1025.63 1025.47 1024.97 1024.50 1024.29 1024.20 1024.16 1024.30 1024.39 1024.50 1024.65 1024.91 1025.12 1025.42 1025.70 1026.01 1026.35 1026.65 1026.86 1026.78 1026.63 1026.64 1026.66 1026.60
1016.20 1016.90 1017.54 1018.05 1018.79 1019.40 1019.98 1020.52 1021.09 1021.62 1022.29 1022.87 1023.44 1024.11 1024.60 1025.04 1025.30 1025.38 1025.31 1025.48 1025.31 1025.18 1024.72 1024.37 1023.98 1023.92 1024.09 1024.05 1024.14 1024.12 1024.39 1024.63 1024.87 1025.06 1025.36 1025.61 1025.87 1025.93 1025.92 1025.88 1026.06 1026.05 1026.01
1016.27 1016.61 1017.06 1018.02 1018.72 1019.30 1019.82 1020.40 1021.09 1021.88 1022.23 1023.05 1023.72 1024.11 1024.35 1024.61 1024.92 1025.12 1025.10 1025.04 1025.15 1025.26 1025.01 1024.45 1024.31 1023.86 1023.82 1023.70 1023.67 1023.91 1023.99 1024.07 1024.14 1024.37 1024.52 1024.66 1024.82 1024.85 1024.95 1025.01 1025.24 1025.30 1025.28
1015.57 1016.27 1016.87 1017.70 1018.73 1019.31 1019.70 1020.37 1021.07 1021.62 1022.26 1023.01 1023.50 1023.89 1024.06 1024.36 1024.49 1024.71 1024.75 1024.67 1024.75 1024.83 1024.47 1024.22 1023.96 1023.70 1023.40 1023.17 1023.19 1023.37 1023.30 1023.16 1023.27 1023.32 1023.46 1023.57 1023.76 1023.88 1023.99 1024.09 1024.25 1024.46 1024.48
1015.27 1015.61 1016.68 1017.82 1018.68 1019.22 1019.76 1020.39 1021.12 1021.74 1022.34 1022.75 1023.16 1023.69 1024.17 1024.41 1024.56 1024.51 1024.38 1024.32 1024.22 1024.16 1024.06 1023.60 1023.32 1023.02 1022.91 1022.88 1022.63 1022.58 1022.42 1022.33 1022.13 1022.07 1022.15 1022.39 1022.53 1022.86 1022.96 1023.14 1023.37 1023.50 1023.55
1015.60 1015.79 1017.03 1017.95 1018.58 1019.18 1019.69 1020.37 1021.09 1021.69 1022.01 1022.80 1023.30 1023.74 1023.84 1023.94 1023.95 1023.91 1023.85 1023.74 1023.56 1023.41 1023.52 1023.15 1022.88 1022.64 1022.36 1022.03 1021.81 1021.77 1021.60 1021.39 1021.36 1022.05 1022.36 1021.84 1021.34 1021.67 1021.90 1022.15 1022.50 1022.46 1022.61
1015.78 1016.42 1017.14 1017.93 1018.51 1019.23 1019.92 1020.50 1021.25 1021.65 1022.40 1022.54 1023.03 1023.39 1023.49 1023.49 1023.52 1023.47 1023.27 1023.17 1023.01 1022.85 1022.83 1022.76 1022.06 1021.73 1021.45 1021.30 1021.04 1020.83 1020.86 1021.37 1020.95 1020.61 1020.66 1021.30 1020.76 1020.83 1021.13 1021.41 1021.55 1021.49 1021.63
1015.84 1016.62 1017.36 1018.02 1018.67 1019.41 1020.03 1020.72 1021.30 1021.85 1022.24 1022.61 1022.84 1023.05 1023.08 1023.18 1023.21 1023.09 1022.95 1022.90 1022.68 1022.70 1022.42 1022.17 1021.70 1021.36 1021.13 1020.54 1020.52 1020.46 1020.42 1020.20 1020.04 1019.73 1019.78 1019.75 1020.20 1020.35 1020.26 1020.43 1020.57 1020.73 1020.70
1016.30 1016.93 1017.57 1018.28 1018.98 1019.49 1020.13 1020.71 1021.19 1021.77 1022.14 1022.53 1022.73 1022.82 1022.69 1022.58 1022.53 1022.50 1022.66 1022.62 1022.60 1022.55 1022.33 1021.87 1021.43 1021.09 1020.66 1020.47 1020.34 1019.82 1019.89 1019.62 1019.53 1019.42 1019.40 1019.48 1019.62 1019.67 1019.61 1019.74 1019.89 1019.84 1019.77
1016.43 1017.21 1017.91 1018.56 1019.22 1019.78 1020.27 1020.77 1021.31 1021.80 1022.27 1022.59 1022.90 1022.82 1022.68 1022.39 1022.51 1022.65 1022.80 1022.74 1022.90 1022.80 1022.51 1022.28 1021.62 1021.15 1020.27 1019.95 1019.56 1019.35 1019.37 1019.48 1019.55 1019.18 1019.00 1019.34 1018.86 1019.28 1019.18 1019.37 1019.28 1019.02 1019.03
1017.03 1017.78 1018.44 1018.99 1019.53 1020.03 1020.57 1021.12 1021.64 1022.11 1022.50 1022.74 1023.00 1023.18 1023.17 1023.07 1023.12 1022.98 1022.74 1022.59 1022.45 1022.25 1022.28 1021.92 1021.21 1020.62 1020.01 1019.60 1019.13 1018.69 1018.45 1018.30 1018.22 1018.06 1018.20 1018.71 1018.66 1018.67 1018.63 1018.56 1018.46 1018.40 1018.55
1017.53 1018.15 1018.74 1019.24 1019.83 1020.39 1020.92 1021.48 1021.89 1022.44 1022.88 1023.20 1023.30 1023.45 1023.60 1023.60 1023.49 1023.34 1023.16 1022.91 1022.62 1022.20 1021.87 1021.46 1020.92 1020.08 1019.46 1018.89 1018.63 1018.26 1017.47 1016.97 1017.06 1017.08 1017.69 1018.08 1017.94 1018.10 1018.08 1018.01 1017.81 1017.90 1018.03
1017.73 1018.30 1018.85 1019.78 1020.51 1021.26 1021.46 1021.81 1022.27 1022.82 1023.27 1023.50 1023.63 1023.60 1023.53 1023.42 1023.32 1023.26 1022.97 1022.58 1022.27 1021.78 1021.08 1020.51 1019.98 1019.36 1018.68 1018.06 1017.72 1017.28 1016.59 1016.45 1016.27 1016.36 1016.58 1016.92 1017.37 1017.58 1017.62 1017.53 1017.50 1017.53 1017.62
1017.75 1018.43 1019.36 1020.25 1020.96 1021.61 1021.87 1022.12 1022.68 1023.07 1023.56 1023.83 1023.92 1023.80 1023.61 1023.62 1023.45 1023.22 1022.92 1022.62 1021.80 1021.08 1020.36 1019.54 1019.07 1018.44 1017.81 1017.23 1016.77 1016.34 1015.69 1015.40 1015.50 1016.03 1015.97 1016.44 1016.88 1017.37 1017.51 1017.11 1017.16 1017.40 1017.49
Wind_Speed
6 5 5 5 4 3 3 3 4 3 4 4 4 5 4 6 6 3 2 11 9 10 10 10 9 8 8 7 6 6 6 7 8 9 9 9 9 9 9 9 9 10 12
6 5 5 5 4 4 4 5 5 4 3 4 4 4 3 5 6 6 3 4 11 12 10 9 9 8 7 6 4 2 3 4 6 7 8 8 8 10 11 12 12 13 12
6 6 4 4 4 5 6 4 3 3 4 2 4 3 2 4 5 6 5 4 5 10 10 9 7 6 6 4 3 1 2 2 3 5 6 7 8 9 10 11 11 13 14
6 5 4 4 5 4 5 4 4 3 4 5 4 4 3 4 3 6 5 4 3 2 5 9 9 8 7 6 5 3 2 2 3 4 5 8 9 9 10 11 12 13 15
6 5 4 4 5 4 4 4 3 3 2 3 5 4 5 5 5 4 6 6 6 5 4 7 9 8 8 7 5 3 4 4 3 4 6 9 10 10 11 13 14 14 14
6 5 4 5 5 4 4 2 3 3 2 4 5 5 5 5 5 4 5 4 6 7 7 7 5 5 9 8 7 6 7 6 4 2 7 8 10 12 13 13 14 14 15
7 6 4 5 5 5 6 6 4 5 4 3 3 1 3 4 5 5 4 4 4 6 7 6 5 4 4 11 12 10 11 8 6 5 4 5 8 11 12 14 15 17 18
9 8 9 6 6 4 6 6 5 4 3 3 3 1 3 3 2 4 4 4 7 4 5 6 7 7 6 5 7 14 14 11 7 3 2 3 5 8 12 14 16 18 20
10 9 8 7 6 7 7 7 8 8 4 1 5 4 1 4 2 1 5 4 5 4 5 6 6 7 7 7 9 12 12 9 9 7 3 1 4 9 13 15 17 19 20
10 8 7 7 9 8 9 8 6 5 5 5 2 4 5 4 1 1 3 3 4 5 6 4 5 6 6 4 9 11 14 12 12 10 7 5 5 9 13 15 17 18 20
9 8 8 7 6 4 4 6 5 4 4 4 4 2 3 2 2 0 3 3 2 3 3 4 5 5 6 6 5 10 18 17 16 14 12 8 7 10 11 13 16 19 21
9 10 9 8 7 6 6 5 6 7 5 5 6 6 3 3 2 3 1 2 3 4 2 3 5 5 5 5 10 18 20 20 19 17 14 11 9 10 11 13 16 19 20
7 9 8 6 5 5 6 7 6 5 6 6 6 4 3 4 2 1 1 3 3 3 3 2 3 4 5 5 6 17 22 20 19 18 16 14 12 13 12 13 14 16 19
9 9 8 6 6 7 6 6 5 7 8 7 9 6 5 4 3 3 3 3 4 3 2 4 2 3 3 5 7 19 11 19 18 18 18 16 16 15 14 12 14 15 18
5 9 10 8 7 7 8 8 7 6 6 4 5 6 4 3 3 3 4 5 4 7 5 4 3 5 4 3 6 8 7 18 19 18 18 19 19 18 15 14 15 16 17
10 10 10 10 8 8 9 8 7 8 9 6 4 5 4 2 3 4 5 4 3 6 8 5 5 5 5 4 6 8 10 18 21 20 20 21 20 18 16 15 16 15 17
9 10 10 9 9 9 8 8 8 9 8 7 5 4 2 2 3 4 4 4 4 3 7 5 4 5 4 7 6 6 9 11 10 22 22 21 19 17 16 18 17 16 17
6 9 9 9 9 9 9 10 10 7 8 6 4 2 4 4 5 6 5 7 6 6 6 14 5 4 7 7 8 7 8 9 8 11 16 18 16 17 18 17 17 18 18
9 9 10 10 10 10 9 8 7 8 5 6 5 4 5 4 5 5 5 5 6 6 5 7 10 4 6 4 7 6 4 4 6 14 15 16 16 15 15 17 20 20 18
10 9 9 9 9 9 9 8 7 6 5 4 4 4 5 6 7 8 7 6 7 6 6 7 7 5 4 6 4 5 5 4 5 6 8 6 9 14 14 17 18 16 18
9 10 10 9 9 8 6 8 8 6 4 3 4 5 5 7 11 11 7 6 6 7 5 7 9 8 6 3 5 5 5 4 3 4 4 4 4 4 4 6 7 12 15
9 9 8 9 8 5 12 10 6 5 4 2 4 4 5 7 8 11 10 10 4 5 5 4 7 8 11 5 4 5 6 5 6 5 4 5 4 4 4 4 10 11 6
9 8 8 8 7 6 9 8 7 3 1 2 4 5 6 7 9 8 11 12 10 11 6 6 10 8 10 8 10 9 6 8 7 4 3 7 4 4 4 5 11 9 7
9 8 6 6 6 3 10 8 7 5 6 6 6 6 5 6 7 11 11 11 11 10 10 8 9 12 11 9 9 11 13 11 7 5 5 7 4 4 3 5 10 7 6
6 5 6 10 11 8 12 12 9 6 6 5 5 5 5 5 9 16 10 12 13 13 13 19 20 22 23 23 21 11 9 8 6 5 5 4 4 3 3 3 4 6 6
5 7 10 10 13 10 12 13 9 4 5 3 3 3 6 8 13 16 11 11 13 14 13 14 12 13 14 14 19 12 10 8 5 3 4 4 3 4 2 2 3 1 2
Wind_Direction
134 143 147 136 143 169 152 154 113 112 107 95 80 79 69 105 125 132 141 130 151 154 150 149 142 138 128 111 91 71 58 50 41 38 36 22 21 21 12 15 19 13 6
162 153 162 142 162 187 172 157 147 167 155 116 95 101 109 100 145 139 160 166 160 162 166 165 164 165 163 152 135 97 40 45 33 29 19 10 9 359 358 358 357 358 355
175 164 132 175 187 178 166 145 176 144 146 138 157 158 148 126 119 159 167 179 174 169 165 169 181 179 155 150 164 247 335 23 27 19 7 357 347 350 350 348 346 343 342
154 141 165 175 180 159 149 149 160 170 175 159 185 183 177 151 152 148 169 161 148 126 140 135 143 156 166 187 204 225 277 318 342 351 357 346 342 348 343 339 336 335 330
171 156 180 185 166 153 155 157 187 167 184 180 188 181 176 172 185 179 155 160 172 146 146 155 168 182 198 209 219 235 259 284 292 330 351 342 341 339 335 330 328 323 318
173 175 179 183 167 163 169 155 174 194 198 191 197 178 191 189 196 183 180 156 158 168 173 181 187 208 209 209 206 216 241 256 261 304 332 337 337 330 325 323 319 317 318
182 178 184 184 183 180 176 177 174 206 234 222 119 183 250 222 199 191 182 190 181 178 173 185 186 199 201 200 207 221 232 237 244 266 316 334 335 325 324 322 320 314 311
186 188 192 196 174 157 176 188 173 173 201 197 193 60 201 329 297 220 186 193 208 186 207 184 184 182 180 190 199 215 223 225 241 188 173 323 331 325 318 315 312 311 310
187 189 189 202 190 180 193 198 193 173 180 202 231 155 221 229 130 266 239 206 198 209 194 191 196 187 187 195 203 207 203 201 189 185 182 212 308 311 310 310 310 309 307
187 173 168 193 185 190 200 200 191 174 140 161 31 23 13 42 109 273 316 247 202 204 214 234 214 201 207 203 178 180 165 167 178 188 186 206 273 300 305 309 310 310 309
190 182 179 178 181 173 175 171 174 165 134 141 140 118 100 48 337 311 265 292 326 249 244 217 215 215 198 176 164 176 168 169 180 191 195 210 251 286 293 304 309 310 308
191 188 185 180 179 183 179 167 153 154 156 135 142 144 143 162 197 232 195 280 259 279 225 252 245 220 198 193 178 176 176 179 185 194 198 213 244 260 282 297 305 308 306
191 200 178 177 179 172 162 157 156 134 138 131 123 122 140 154 146 196 192 241 254 284 286 227 228 228 235 221 180 179 188 185 189 195 204 217 230 247 270 294 301 304 303
184 170 177 184 179 158 142 131 128 135 138 140 146 156 142 161 184 194 189 222 272 269 283 251 306 299 256 231 206 192 191 195 194 200 206 213 224 241 257 277 282 289 297
161 160 162 154 154 143 134 136 142 131 118 115 128 142 156 174 199 226 239 249 211 273 269 278 259 271 270 246 220 197 193 203 202 207 205 212 223 235 248 261 266 279 292
179 161 145 133 135 136 140 132 131 134 132 137 145 166 188 189 223 244 251 262 240 232 271 208 241 233 253 263 230 203 207 206 211 211 206 211 219 231 244 246 253 264 279
150 137 134 138 146 144 140 129 129 134 139 149 158 169 229 321 265 254 250 243 241 234 267 270 232 243 253 250 260 219 216 210 210 206 208 210 215 224 226 232 238 248 263
121 115 124 136 138 139 137 137 143 151 140 149 151 169 242 258 253 262 251 249 249 243 254 271 242 242 233 239 231 229 228 227 210 225 228 219 209 215 222 226 229 237 249
117 123 130 134 132 133 133 127 141 147 153 147 165 199 237 252 264 259 256 255 254 259 238 254 272 237 249 234 245 231 210 249 221 216 215 228 221 218 217 224 231 237 244
113 113 121 128 129 129 129 136 135 134 134 175 203 224 243 248 254 266 268 269 266 251 246 254 263 267 228 249 215 218 247 228 241 239 229 179 209 219 220 228 235 238 242
114 119 119 116 125 126 136 136 139 151 162 189 240 262 262 257 260 261 273 291 298 295 284 279 279 280 269 269 231 250 245 253 254 235 226 226 209 223 232 222 226 240 247
113 115 115 121 120 121 143 146 140 145 158 241 281 308 312 305 354 16 23 9 17 330 304 285 296 288 286 252 246 233 253 236 249 230 197 247 176 215 209 219 240 247 238
116 118 123 128 140 136 154 145 138 121 182 339 16 17 1 8 6 357 350 344 340 328 277 277 287 286 290 288 285 265 233 237 232 232 132 237 191 212 226 245 250 219 225
130 138 144 137 109 119 111 115 119 74 66 49 43 39 25 0 350 351 342 333 324 314 305 294 289 294 289 291 282 280 267 248 230 224 182 216 182 224 234 248 251 225 274
146 154 141 114 104 84 87 83 83 68 60 41 20 0 356 336 341 346 334 320 316 307 296 292 287 287 286 284 279 277 258 233 225 210 196 158 198 210 210 220 216 249 288
132 98 108 106 109 104 97 103 95 95 69 17 329 325 352 349 340 337 326 315 307 303 306 300 290 285 284 286 285 268 255 228 223 190 218 170 163 151 313 245 171 220 293